Rochelle, IL

7:41 AM CST on February 24, 2017 (GMT -0600)
Rochelle

Weather History for KRPJ - November, 2012

Change the Weather History Date:

Wednesday, November 28, 2012

  Actual Average (KRFD) Record (KRFD)
Temperature  
Mean Temperature 30 °F -  
Max Temperature 44 °F 36 °F 65 °F (1998)
Min Temperature 15 °F 23 °F -6 °F (1930)
Degree Days  
Heating Degree Days 36    
Moisture  
Dew Point 20 °F    
Average Humidity 69    
Maximum Humidity 91    
Minimum Humidity 39    
Precipitation  
Precipitation 0.00 in - - ()
Sea Level Pressure  
Sea Level Pressure 30.31 in    
Wind  
Wind Speed 6 mph (SW)    
Max Wind Speed 12 mph    
Max Gust Speed 10 mph    
Visibility 10 miles    
Events      
Averages and records for this station are not official NWS values.
T = Trace of Precipitation, MM = Missing Value Source: NWS Daily Summary

Daily Weather History Graph

Daily Weather History Graph

Search for Another Location

Airport or City:

Trip Planner

Search our weather history database for the weather conditions in past years. The results will help you decide how hot, cold, wet, or windy it might be!

Date:

Astronomy

Nov. 28, 2012 Rise Set
Actual Time 7:01 AM CST 4:26 PM CST
Civil Twilight 6:30 AM CST 4:57 PM CST
Nautical Twilight 5:56 AM CST 5:32 PM CST
Astronomical Twilight 5:22 AM CST 6:05 PM CST
Moon 4:41 PM CST (11/28) 6:59 AM CST (11/28)
Length of Visible Light 10h 27m
Length of Day
9h 25m
Full, 100% of the Moon is Illuminated
Nov 28
Full
Dec 6
Last Quarter
Dec 13
New
Dec 19
First Quarter
Dec 28
Full

Hourly Weather History & Observations

Time (CST) Temp. Windchill Dew Point Humidity Pressure Visibility Wind Dir Wind Speed Gust Speed Precip Events Conditions
12:15 AM 28.4 °F 20.4 °F 18.5 °F 66% 30.24 in 10.0 mi WSW 8.1 mph - N/A   Overcast
12:35 AM 28.8 °F 20.2 °F 18.9 °F 67% 30.25 in 10.0 mi WSW 9.2 mph - N/A   Overcast
1:15 AM 29.7 °F 21.3 °F 19.0 °F 65% 30.25 in 10.0 mi WSW 9.2 mph - N/A   Overcast
1:35 AM 29.7 °F 21.3 °F 19.0 °F 65% 30.25 in 10.0 mi WSW 9.2 mph - N/A   Overcast
2:15 AM 29.3 °F 21.5 °F 19.4 °F 67% 30.26 in 10.0 mi West 8.1 mph - N/A   Overcast
2:35 AM 29.1 °F 23.0 °F 19.8 °F 68% 30.27 in 10.0 mi West 5.8 mph - N/A   Overcast
2:55 AM 27.9 °F 20.6 °F 19.4 °F 71% 30.27 in 10.0 mi West 6.9 mph - N/A   Mostly Cloudy
3:15 AM 25.2 °F 17.3 °F 18.3 °F 75% 30.28 in 10.0 mi West 6.9 mph - N/A   Scattered Clouds
3:35 AM 22.8 °F 13.6 °F 17.1 °F 79% 30.28 in 10.0 mi West 8.1 mph - N/A   Clear
3:55 AM 22.1 °F 12.8 °F 17.2 °F 82% 30.28 in 10.0 mi West 8.1 mph - N/A   Clear
4:15 AM 21.2 °F - 16.3 °F 82% 30.29 in 10.0 mi Calm Calm - N/A   Clear
4:35 AM 21.0 °F 16.2 °F 16.9 °F 84% 30.29 in 10.0 mi SW 3.5 mph - N/A   Clear
4:55 AM 20.3 °F 15.4 °F 16.5 °F 85% 30.30 in 10.0 mi SW 3.5 mph - N/A   Clear
5:15 AM 19.6 °F - 15.8 °F 85% 30.30 in 10.0 mi Calm Calm - N/A   Clear
5:35 AM 19.9 °F 13.4 °F 16.3 °F 86% 30.31 in 10.0 mi West 4.6 mph - N/A   Clear
5:55 AM 18.9 °F 13.7 °F 15.6 °F 87% 30.31 in 10.0 mi WSW 3.5 mph - N/A   Clear
6:15 AM 19.4 °F 14.3 °F 15.8 °F 86% 30.32 in 10.0 mi SSW 3.5 mph - N/A   Clear
6:35 AM 18.0 °F - 14.7 °F 87% 30.33 in 10.0 mi Calm Calm - N/A   Clear
6:55 AM 15.6 °F 4.9 °F 12.7 °F 88% 30.34 in 10.0 mi SSW 8.1 mph - N/A   Clear
7:15 AM 16.9 °F 9.8 °F 14.2 °F 89% 30.35 in 10.0 mi WSW 4.6 mph - N/A   Clear
7:35 AM 18.0 °F 12.7 °F 15.6 °F 91% 30.35 in 10.0 mi South 3.5 mph - N/A   Clear
7:55 AM 21.4 °F - 18.3 °F 88% 30.35 in 10.0 mi Calm Calm - N/A   Clear
8:15 AM 24.1 °F - 19.2 °F 82% 30.36 in 10.0 mi Calm Calm - N/A   Clear
8:35 AM 25.7 °F - 19.6 °F 78% 30.36 in 10.0 mi Calm Calm - N/A   Clear
8:55 AM 27.9 °F 24.0 °F 20.3 °F 73% 30.37 in 10.0 mi West 3.5 mph - N/A   Clear
9:15 AM 30.6 °F 25.8 °F 20.8 °F 67% 30.38 in 10.0 mi NW 4.6 mph - N/A   Clear
9:55 AM 33.6 °F 29.4 °F 22.1 °F 63% 30.37 in 10.0 mi North 4.6 mph - N/A   Clear
10:15 AM 35.4 °F 30.5 °F 22.6 °F 60% 30.37 in 10.0 mi North 5.8 mph - N/A   Clear
10:35 AM 36.7 °F - 22.8 °F 57% 30.37 in 10.0 mi Calm Calm - N/A   Clear
10:55 AM 37.4 °F 34.9 °F 23.5 °F 57% 30.37 in 10.0 mi West 3.5 mph - N/A   Clear
11:15 AM 38.3 °F - 23.9 °F 56% 30.36 in 10.0 mi Calm Calm - N/A   Clear
11:35 AM 39.6 °F 36.3 °F 23.9 °F 54% 30.36 in 10.0 mi SW 4.6 mph - N/A   Clear
11:55 AM 39.9 °F 35.1 °F 23.9 °F 53% 30.35 in 10.0 mi WSW 6.9 mph - N/A   Clear
12:15 PM 41.2 °F 36.6 °F 22.8 °F 48% 30.35 in 10.0 mi WSW 6.9 mph 10.4 mph N/A   Clear
12:35 PM 41.7 °F 35.6 °F 23.7 °F 49% 30.34 in 10.0 mi SW 10.4 mph - N/A   Clear
12:55 PM 42.8 °F 37.5 °F 22.5 °F 45% 30.34 in 10.0 mi SW 9.2 mph - N/A   Clear
1:15 PM 43.3 °F 38.1 °F 21.4 °F 42% 30.34 in 10.0 mi WSW 9.2 mph - N/A   Clear
1:35 PM 43.7 °F 39.1 °F 21.0 °F 41% 30.33 in 10.0 mi SW 8.1 mph - N/A   Clear
1:55 PM 43.9 °F 38.3 °F 21.0 °F 40% 30.32 in 10.0 mi WSW 10.4 mph - N/A   Clear
2:15 PM 44.1 °F 39.5 °F 20.7 °F 39% 30.32 in 10.0 mi WSW 8.1 mph - N/A   Clear
2:35 PM 43.7 °F 38.6 °F 20.5 °F 40% 30.31 in 10.0 mi WSW 9.2 mph - N/A   Clear
2:55 PM 43.7 °F 37.7 °F 21.0 °F 41% 30.31 in 10.0 mi WSW 11.5 mph - N/A   Clear
3:15 PM 43.2 °F 38.4 °F 21.2 °F 42% 30.31 in 10.0 mi WSW 8.1 mph - N/A   Clear
3:35 PM 42.4 °F 37.0 °F 21.2 °F 43% 30.31 in 10.0 mi WSW 9.2 mph - N/A   Clear
3:55 PM 41.0 °F 36.4 °F 21.6 °F 46% 30.31 in 10.0 mi SW 6.9 mph - N/A   Clear
4:15 PM 38.3 °F 33.9 °F 21.2 °F 50% 30.31 in 10.0 mi SW 5.8 mph - N/A   Clear
4:35 PM 35.4 °F 30.5 °F 20.7 °F 55% 30.31 in 10.0 mi WSW 5.8 mph - N/A   Clear
4:55 PM 31.5 °F 26.8 °F 18.9 °F 60% 30.31 in 10.0 mi SW 4.6 mph - N/A   Clear
5:15 PM 29.3 °F 24.3 °F 17.8 °F 62% 30.30 in 10.0 mi South 4.6 mph - N/A   Clear
5:35 PM 27.9 °F 19.8 °F 16.9 °F 63% 30.30 in 10.0 mi South 8.1 mph - N/A   Clear
5:55 PM 26.4 °F 17.3 °F 17.4 °F 69% 30.30 in 10.0 mi South 9.2 mph - N/A   Clear
6:35 PM 25.0 °F 17.1 °F 17.1 °F 72% 30.30 in 10.0 mi South 6.9 mph - N/A   Clear
6:55 PM 24.8 °F 16.9 °F 18.1 °F 76% 30.29 in 10.0 mi South 6.9 mph - N/A   Clear
7:35 PM 25.2 °F 16.5 °F 19.0 °F 78% 30.29 in 10.0 mi South 8.1 mph - N/A   Clear
7:55 PM 24.8 °F 16.9 °F 19.0 °F 79% 30.28 in 10.0 mi South 6.9 mph - N/A   Clear
8:15 PM 24.4 °F 16.5 °F 19.2 °F 81% 30.28 in 10.0 mi South 6.9 mph - N/A   Clear
8:35 PM 26.2 °F 18.6 °F 20.3 °F 78% 30.28 in 10.0 mi South 6.9 mph - N/A   Clear
8:55 PM 26.8 °F 20.2 °F 20.7 °F 78% 30.27 in 10.0 mi South 5.8 mph - N/A   Clear
9:15 PM 27.0 °F 20.5 °F 20.8 °F 78% 30.27 in 10.0 mi South 5.8 mph - N/A   Clear
9:35 PM 26.6 °F 20.0 °F 20.8 °F 79% 30.27 in 10.0 mi South 5.8 mph - N/A   Clear
9:55 PM 25.9 °F 20.3 °F 20.8 °F 81% 30.27 in 10.0 mi South 4.6 mph - N/A   Clear
10:15 PM 25.5 °F 19.9 °F 20.3 °F 81% 30.26 in 10.0 mi SSE 4.6 mph - N/A   Clear
10:35 PM 25.9 °F 20.3 °F 20.1 °F 79% 30.26 in 10.0 mi SSE 4.6 mph - N/A   Clear
10:55 PM 23.7 °F 15.6 °F 19.4 °F 84% 30.26 in 10.0 mi South 6.9 mph - N/A   Clear
11:15 PM 25.7 °F 15.7 °F 21.6 °F 84% 30.26 in 10.0 mi South 10.4 mph - N/A   Clear
11:35 PM 25.9 °F 17.4 °F 22.1 °F 86% 30.26 in 10.0 mi South 8.1 mph - N/A   Clear
11:55 PM 25.9 °F 18.2 °F 22.1 °F 86% 30.25 in 10.0 mi South 6.9 mph - N/A   Clear